Multibeam Report for EX1601


Ship Name: Okeanos Explorer
Chief Scientist: Sowers, Derek
NOAA/OAR/OER
Source Organization: NOAA Office of Ocean Exploration and Research (OER)
Start Date: 2016-01-20
End Date: 2016-02-07


View ISO Metadata

Visit the full NCEI Bathymetry Viewer


Multibeam Bathymetry

Cruise Details

Project: Transit and Mission Patch Test
Instrument: Kongsberg EM302

Data Quality

Number of Files: 487
Number of Records: 157918
BATHYMETRY DATA Quantity Percentage
Number of Beams 68220576 100%
Number of Good Beams 63648686 93.3%
Number of Zero Beams 2169644 3.18%
Number of Flagged Beams 2402246 3.52%
AMPLITUDE DATA Quantity Percentage
Number of Beams 34151328 100%
Number of Good Beams 31953082 93.56%
Number of Zero Beams 3363 0.01%
Number of Flagged Beams 2194883 6.43%
SIDESCAN DATA Quantity Percentage
Number of Pixels 80951296 100%
Number of Good Pixels 51537496 63.66%
Number of Zero Pixels 0 0%
Number of Flagged Pixels 29413800 36.34%

Navigation Totals

Total Time: 402.1467 hours
Total Track Length: 7411.0828 km
Average Speed: 18.429 km/hr (9.9509 knots)

Cruise Bounds

Northern Extent: 35.893005
Southern Extent: 21.111107
Western Extent: -158.35858
Eastern Extent: -127.4494

Limits

Minimum Sonar Depth 0 Maximum Sonar Depth 8.2713
Minimum Altitude 0 Maximum Altitude 6389.5249
Minimum Depth 623.1629 Maximum Depth 6680.2114
Minimum Amplitude 0 Maximum Amplitude 34.9
Minimum Sidescan 0 Maximum Sidescan 38.66

File Information

Full Resolution Bathymetry as collected (raw): 234

Files File Size Description
0000_20160125_030733_EX1601_MB.all.mb58.gz 6.37MB Kongsberg multibeam vendor format
0001_20160125_040731_EX1601_MB.all.mb58.gz 66.25MB Kongsberg multibeam vendor format
0002_20160125_050731_EX1601_MB.all.mb58.gz 66.74MB Kongsberg multibeam vendor format
0003_20160125_060723_EX1601_MB.all.mb58.gz 66.92MB Kongsberg multibeam vendor format
0004_20160125_070726_EX1601_MB.all.mb58.gz 66.60MB Kongsberg multibeam vendor format
0005_20160125_080724_EX1601_MB.all.mb58.gz 66.91MB Kongsberg multibeam vendor format
0006_20160125_090729_EX1601_MB.all.mb58.gz 66.85MB Kongsberg multibeam vendor format
0007_20160125_100726_EX1601_MB.all.mb58.gz 67.00MB Kongsberg multibeam vendor format
0008_20160125_110727_EX1601_MB.all.mb58.gz 66.92MB Kongsberg multibeam vendor format
0009_20160125_120724_EX1601_MB.all.mb58.gz 67.09MB Kongsberg multibeam vendor format
0010_20160125_130729_EX1601_MB.all.mb58.gz 66.87MB Kongsberg multibeam vendor format
0011_20160125_140725_EX1601_MB.all.mb58.gz 66.83MB Kongsberg multibeam vendor format
0012_20160125_150723_EX1601_MB.all.mb58.gz 66.87MB Kongsberg multibeam vendor format
0013_20160125_160725_EX1601_MB.all.mb58.gz 66.53MB Kongsberg multibeam vendor format
0014_20160125_170724_EX1601_MB.all.mb58.gz 66.32MB Kongsberg multibeam vendor format
0015_20160125_180727_EX1601_MB.all.mb58.gz 66.19MB Kongsberg multibeam vendor format
0016_20160125_190729_EX1601_MB.all.mb58.gz 66.06MB Kongsberg multibeam vendor format
0017_20160125_200724_EX1601_MB.all.mb58.gz 31.80MB Kongsberg multibeam vendor format
0018_20160125_223840_EX1601_MB.all.mb58.gz 3.55MB Kongsberg multibeam vendor format
0019_20160125_231343_EX1601_MB.all.mb58.gz 17.50MB Kongsberg multibeam vendor format
0020_20160125_233056_EX1601_MB.all.mb58.gz 5.19MB Kongsberg multibeam vendor format
0021_20160126_002818_EX1601_MB.all.mb58.gz 0.85MB Kongsberg multibeam vendor format
0022_20160126_004220_EX1601_MB.all.mb58.gz 13.05MB Kongsberg multibeam vendor format
0023_20160126_010903_EX1601_MB.all.mb58.gz 1.25MB Kongsberg multibeam vendor format
0024_20160126_011511_EX1601_MB.all.mb58.gz 5.41MB Kongsberg multibeam vendor format
0025_20160126_013604_EX1601_MB.all.mb58.gz 36.69MB Kongsberg multibeam vendor format
0027_20160126_022637_EX1601_MB.all.mb58.gz 11.98MB Kongsberg multibeam vendor format
0028_20160126_025217_EX1601_MB.all.mb58.gz 11.85MB Kongsberg multibeam vendor format
0029_20160126_032025_EX1601_MB.all.mb58.gz 21.96MB Kongsberg multibeam vendor format
0030_20160126_034006_EX1601_MB.all.mb58.gz 67.23MB Kongsberg multibeam vendor format
0031_20160126_044007_EX1601_MB.all.mb58.gz 66.98MB Kongsberg multibeam vendor format
0032_20160126_054008_EX1601_MB.all.mb58.gz 66.29MB Kongsberg multibeam vendor format
0033_20160126_064006_EX1601_MB.all.mb58.gz 66.23MB Kongsberg multibeam vendor format
0034_20160126_074010_EX1601_MB.all.mb58.gz 66.84MB Kongsberg multibeam vendor format
0035_20160126_084008_EX1601_MB.all.mb58.gz 66.95MB Kongsberg multibeam vendor format
0036_20160126_094011_EX1601_MB.all.mb58.gz 66.45MB Kongsberg multibeam vendor format
0037_20160126_104008_EX1601_MB.all.mb58.gz 66.12MB Kongsberg multibeam vendor format
0038_20160126_114008_EX1601_MB.all.mb58.gz 66.10MB Kongsberg multibeam vendor format
0039_20160126_124004_EX1601_MB.all.mb58.gz 66.20MB Kongsberg multibeam vendor format
0040_20160126_134009_EX1601_MB.all.mb58.gz 66.13MB Kongsberg multibeam vendor format
0041_20160126_144005_EX1601_MB.all.mb58.gz 66.07MB Kongsberg multibeam vendor format
0042_20160126_154007_EX1601_MB.all.mb58.gz 65.71MB Kongsberg multibeam vendor format
0043_20160126_164004_EX1601_MB.all.mb58.gz 65.66MB Kongsberg multibeam vendor format
0044_20160126_174011_EX1601_MB.all.mb58.gz 66.04MB Kongsberg multibeam vendor format
0045_20160126_184010_EX1601_MB.all.mb58.gz 66.32MB Kongsberg multibeam vendor format
0046_20160126_194008_EX1601_MB.all.mb58.gz 66.08MB Kongsberg multibeam vendor format
0047_20160126_204005_EX1601_MB.all.mb58.gz 66.13MB Kongsberg multibeam vendor format
0048_20160126_214009_EX1601_MB.all.mb58.gz 65.95MB Kongsberg multibeam vendor format
0049_20160126_224004_EX1601_MB.all.mb58.gz 66.69MB Kongsberg multibeam vendor format
0050_20160126_234009_EX1601_MB.all.mb58.gz 66.62MB Kongsberg multibeam vendor format
0051_20160127_004007_EX1601_MB.all.mb58.gz 66.05MB Kongsberg multibeam vendor format
0052_20160127_014003_EX1601_MB.all.mb58.gz 66.56MB Kongsberg multibeam vendor format
0053_20160127_024005_EX1601_MB.all.mb58.gz 66.09MB Kongsberg multibeam vendor format
0054_20160127_034011_EX1601_MB.all.mb58.gz 65.77MB Kongsberg multibeam vendor format
0055_20160127_044010_EX1601_MB.all.mb58.gz 66.13MB Kongsberg multibeam vendor format
0056_20160127_054011_EX1601_MB.all.mb58.gz 66.10MB Kongsberg multibeam vendor format
0057_20160127_064008_EX1601_MB.all.mb58.gz 66.02MB Kongsberg multibeam vendor format
0058_20160127_074008_EX1601_MB.all.mb58.gz 65.90MB Kongsberg multibeam vendor format
0059_20160127_084003_EX1601_MB.all.mb58.gz 66.43MB Kongsberg multibeam vendor format
0060_20160127_094007_EX1601_MB.all.mb58.gz 66.22MB Kongsberg multibeam vendor format
0061_20160127_104003_EX1601_MB.all.mb58.gz 65.85MB Kongsberg multibeam vendor format
0062_20160127_114004_EX1601_MB.all.mb58.gz 66.48MB Kongsberg multibeam vendor format
0063_20160127_124013_EX1601_MB.all.mb58.gz 65.93MB Kongsberg multibeam vendor format
0064_20160127_134009_EX1601_MB.all.mb58.gz 65.76MB Kongsberg multibeam vendor format
0065_20160127_144006_EX1601_MB.all.mb58.gz 65.93MB Kongsberg multibeam vendor format
0066_20160127_154005_EX1601_MB.all.mb58.gz 66.25MB Kongsberg multibeam vendor format
0067_20160127_164012_EX1601_MB.all.mb58.gz 65.69MB Kongsberg multibeam vendor format
0068_20160127_174004_EX1601_MB.all.mb58.gz 67.28MB Kongsberg multibeam vendor format
0069_20160127_184009_EX1601_MB.all.mb58.gz 66.21MB Kongsberg multibeam vendor format
0070_20160127_194003_EX1601_MB.all.mb58.gz 65.72MB Kongsberg multibeam vendor format
0071_20160127_204004_EX1601_MB.all.mb58.gz 63.06MB Kongsberg multibeam vendor format
0072_20160127_214954_EX1601_MB.all.mb58.gz 65.77MB Kongsberg multibeam vendor format
0073_20160127_224953_EX1601_MB.all.mb58.gz 65.68MB Kongsberg multibeam vendor format
0074_20160127_234952_EX1601_MB.all.mb58.gz 65.83MB Kongsberg multibeam vendor format
0075_20160128_004950_EX1601_MB.all.mb58.gz 65.98MB Kongsberg multibeam vendor format
0076_20160128_014957_EX1601_MB.all.mb58.gz 65.79MB Kongsberg multibeam vendor format
0077_20160128_024957_EX1601_MB.all.mb58.gz 65.85MB Kongsberg multibeam vendor format
0078_20160128_034952_EX1601_MB.all.mb58.gz 66.21MB Kongsberg multibeam vendor format
0079_20160128_044957_EX1601_MB.all.mb58.gz 66.12MB Kongsberg multibeam vendor format
0080_20160128_054949_EX1601_MB.all.mb58.gz 43.19MB Kongsberg multibeam vendor format
0081_20160128_062901_EX1601_MB.all.mb58.gz 65.66MB Kongsberg multibeam vendor format
0082_20160128_072901_EX1601_MB.all.mb58.gz 65.87MB Kongsberg multibeam vendor format
0083_20160128_082900_EX1601_MB.all.mb58.gz 65.82MB Kongsberg multibeam vendor format
0084_20160128_092901_EX1601_MB.all.mb58.gz 65.71MB Kongsberg multibeam vendor format
0085_20160128_102859_EX1601_MB.all.mb58.gz 65.74MB Kongsberg multibeam vendor format
0086_20160128_112854_EX1601_MB.all.mb58.gz 65.97MB Kongsberg multibeam vendor format
0087_20160128_122854_EX1601_MB.all.mb58.gz 66.08MB Kongsberg multibeam vendor format
0088_20160128_132902_EX1601_MB.all.mb58.gz 65.59MB Kongsberg multibeam vendor format
0089_20160128_142858_EX1601_MB.all.mb58.gz 65.60MB Kongsberg multibeam vendor format
0090_20160128_152854_EX1601_MB.all.mb58.gz 65.56MB Kongsberg multibeam vendor format
0091_20160128_162854_EX1601_MB.all.mb58.gz 65.62MB Kongsberg multibeam vendor format
0092_20160128_172853_EX1601_MB.all.mb58.gz 65.59MB Kongsberg multibeam vendor format
0093_20160128_182856_EX1601_MB.all.mb58.gz 65.71MB Kongsberg multibeam vendor format
0094_20160128_192858_EX1601_MB.all.mb58.gz 65.67MB Kongsberg multibeam vendor format
0095_20160128_202853_EX1601_MB.all.mb58.gz 65.72MB Kongsberg multibeam vendor format
0096_20160128_212857_EX1601_MB.all.mb58.gz 65.60MB Kongsberg multibeam vendor format
0097_20160128_222853_EX1601_MB.all.mb58.gz 65.53MB Kongsberg multibeam vendor format
0098_20160128_232856_EX1601_MB.all.mb58.gz 65.46MB Kongsberg multibeam vendor format
0099_20160129_002900_EX1601_MB.all.mb58.gz 65.40MB Kongsberg multibeam vendor format
0100_20160129_012859_EX1601_MB.all.mb58.gz 65.37MB Kongsberg multibeam vendor format
0101_20160129_022854_EX1601_MB.all.mb58.gz 15.20MB Kongsberg multibeam vendor format
0102_20160129_024317_EX1601_MB.all.mb58.gz 35.24MB Kongsberg multibeam vendor format
0103_20160129_031531_EX1601_MB.all.mb58.gz 65.58MB Kongsberg multibeam vendor format
0104_20160129_041537_EX1601_MB.all.mb58.gz 65.34MB Kongsberg multibeam vendor format
0105_20160129_051530_EX1601_MB.all.mb58.gz 65.51MB Kongsberg multibeam vendor format
0106_20160129_061536_EX1601_MB.all.mb58.gz 65.07MB Kongsberg multibeam vendor format
0107_20160129_071530_EX1601_MB.all.mb58.gz 65.37MB Kongsberg multibeam vendor format
0108_20160129_081528_EX1601_MB.all.mb58.gz 65.40MB Kongsberg multibeam vendor format
0109_20160129_091536_EX1601_MB.all.mb58.gz 65.17MB Kongsberg multibeam vendor format
0110_20160129_101536_EX1601_MB.all.mb58.gz 64.98MB Kongsberg multibeam vendor format
0111_20160129_111530_EX1601_MB.all.mb58.gz 65.17MB Kongsberg multibeam vendor format
0112_20160129_121533_EX1601_MB.all.mb58.gz 65.62MB Kongsberg multibeam vendor format
0113_20160129_131535_EX1601_MB.all.mb58.gz 65.34MB Kongsberg multibeam vendor format
0114_20160129_141536_EX1601_MB.all.mb58.gz 65.20MB Kongsberg multibeam vendor format
0115_20160129_151530_EX1601_MB.all.mb58.gz 65.18MB Kongsberg multibeam vendor format
0116_20160129_161528_EX1601_MB.all.mb58.gz 65.33MB Kongsberg multibeam vendor format
0117_20160129_171534_EX1601_MB.all.mb58.gz 65.32MB Kongsberg multibeam vendor format
0118_20160129_181536_EX1601_MB.all.mb58.gz 65.18MB Kongsberg multibeam vendor format
0119_20160129_191533_EX1601_MB.all.mb58.gz 62.60MB Kongsberg multibeam vendor format
0120_20160129_201304_EX1601_MB.all.mb58.gz 65.29MB Kongsberg multibeam vendor format
0121_20160129_211306_EX1601_MB.all.mb58.gz 65.30MB Kongsberg multibeam vendor format
0122_20160129_221305_EX1601_MB.all.mb58.gz 65.16MB Kongsberg multibeam vendor format
0123_20160129_231300_EX1601_MB.all.mb58.gz 65.26MB Kongsberg multibeam vendor format
0124_20160130_001300_EX1601_MB.all.mb58.gz 65.47MB Kongsberg multibeam vendor format
0125_20160130_011306_EX1601_MB.all.mb58.gz 65.10MB Kongsberg multibeam vendor format
0126_20160130_021258_EX1601_MB.all.mb58.gz 43.08MB Kongsberg multibeam vendor format
0127_20160130_025234_EX1601_MB.all.mb58.gz 65.16MB Kongsberg multibeam vendor format
0128_20160130_035230_EX1601_MB.all.mb58.gz 65.21MB Kongsberg multibeam vendor format
0129_20160130_045229_EX1601_MB.all.mb58.gz 65.25MB Kongsberg multibeam vendor format
0130_20160130_055231_EX1601_MB.all.mb58.gz 65.25MB Kongsberg multibeam vendor format
0131_20160130_065233_EX1601_MB.all.mb58.gz 65.10MB Kongsberg multibeam vendor format
0132_20160130_075230_EX1601_MB.all.mb58.gz 65.21MB Kongsberg multibeam vendor format
0133_20160130_085237_EX1601_MB.all.mb58.gz 65.12MB Kongsberg multibeam vendor format
0134_20160130_095229_EX1601_MB.all.mb58.gz 65.39MB Kongsberg multibeam vendor format
0135_20160130_105234_EX1601_MB.all.mb58.gz 65.22MB Kongsberg multibeam vendor format
0136_20160130_115232_EX1601_MB.all.mb58.gz 65.31MB Kongsberg multibeam vendor format
0137_20160130_125235_EX1601_MB.all.mb58.gz 65.34MB Kongsberg multibeam vendor format
0138_20160130_135239_EX1601_MB.all.mb58.gz 65.22MB Kongsberg multibeam vendor format
0139_20160130_145235_EX1601_MB.all.mb58.gz 65.31MB Kongsberg multibeam vendor format
0140_20160130_155238_EX1601_MB.all.mb58.gz 65.25MB Kongsberg multibeam vendor format
0141_20160130_165237_EX1601_MB.all.mb58.gz 65.30MB Kongsberg multibeam vendor format
0142_20160130_175239_EX1601_MB.all.mb58.gz 65.33MB Kongsberg multibeam vendor format
0143_20160130_185235_EX1601_MB.all.mb58.gz 65.47MB Kongsberg multibeam vendor format
0144_20160130_195235_EX1601_MB.all.mb58.gz 65.39MB Kongsberg multibeam vendor format
0145_20160130_205234_EX1601_MB.all.mb58.gz 65.42MB Kongsberg multibeam vendor format
0146_20160130_215231_EX1601_MB.all.mb58.gz 65.59MB Kongsberg multibeam vendor format
0147_20160130_225238_EX1601_MB.all.mb58.gz 65.13MB Kongsberg multibeam vendor format
0148_20160130_235231_EX1601_MB.all.mb58.gz 65.08MB Kongsberg multibeam vendor format
0149_20160131_005230_EX1601_MB.all.mb58.gz 65.20MB Kongsberg multibeam vendor format
0150_20160131_015233_EX1601_MB.all.mb58.gz 64.92MB Kongsberg multibeam vendor format
0151_20160131_025235_EX1601_MB.all.mb58.gz 64.94MB Kongsberg multibeam vendor format
0152_20160131_035231_EX1601_MB.all.mb58.gz 65.20MB Kongsberg multibeam vendor format
0153_20160131_045237_EX1601_MB.all.mb58.gz 62.28MB Kongsberg multibeam vendor format
0154_20160131_054936_EX1601_MB.all.mb58.gz 65.55MB Kongsberg multibeam vendor format
0155_20160131_064934_EX1601_MB.all.mb58.gz 65.28MB Kongsberg multibeam vendor format
0156_20160131_074932_EX1601_MB.all.mb58.gz 65.22MB Kongsberg multibeam vendor format
0157_20160131_084934_EX1601_MB.all.mb58.gz 64.94MB Kongsberg multibeam vendor format
0158_20160131_094927_EX1601_MB.all.mb58.gz 65.08MB Kongsberg multibeam vendor format
0159_20160131_104930_EX1601_MB.all.mb58.gz 65.29MB Kongsberg multibeam vendor format
0160_20160131_114932_EX1601_MB.all.mb58.gz 65.19MB Kongsberg multibeam vendor format
0161_20160131_124934_EX1601_MB.all.mb58.gz 65.44MB Kongsberg multibeam vendor format
0162_20160131_134929_EX1601_MB.all.mb58.gz 65.68MB Kongsberg multibeam vendor format
0163_20160131_144932_EX1601_MB.all.mb58.gz 65.34MB Kongsberg multibeam vendor format
0164_20160131_154928_EX1601_MB.all.mb58.gz 65.26MB Kongsberg multibeam vendor format
0165_20160131_164930_EX1601_MB.all.mb58.gz 65.35MB Kongsberg multibeam vendor format
0166_20160131_174927_EX1601_MB.all.mb58.gz 65.72MB Kongsberg multibeam vendor format
0167_20160131_184936_EX1601_MB.all.mb58.gz 65.11MB Kongsberg multibeam vendor format
0168_20160131_194928_EX1601_MB.all.mb58.gz 65.55MB Kongsberg multibeam vendor format
0169_20160131_204936_EX1601_MB.all.mb58.gz 65.35MB Kongsberg multibeam vendor format
0170_20160131_214929_EX1601_MB.all.mb58.gz 65.19MB Kongsberg multibeam vendor format
0171_20160131_224932_EX1601_MB.all.mb58.gz 65.27MB Kongsberg multibeam vendor format
0172_20160131_234933_EX1601_MB.all.mb58.gz 65.11MB Kongsberg multibeam vendor format
0173_20160201_004931_EX1601_MB.all.mb58.gz 65.15MB Kongsberg multibeam vendor format
0174_20160201_014928_EX1601_MB.all.mb58.gz 65.36MB Kongsberg multibeam vendor format
0175_20160201_024929_EX1601_MB.all.mb58.gz 65.40MB Kongsberg multibeam vendor format
0176_20160201_034927_EX1601_MB.all.mb58.gz 65.43MB Kongsberg multibeam vendor format
0177_20160201_044928_EX1601_MB.all.mb58.gz 65.52MB Kongsberg multibeam vendor format
0178_20160201_054935_EX1601_MB.all.mb58.gz 65.51MB Kongsberg multibeam vendor format
0179_20160201_064932_EX1601_MB.all.mb58.gz 65.53MB Kongsberg multibeam vendor format
0180_20160201_074928_EX1601_MB.all.mb58.gz 51.16MB Kongsberg multibeam vendor format
0181_20160201_083615_EX1601_MB.all.mb58.gz 65.48MB Kongsberg multibeam vendor format
0182_20160201_093617_EX1601_MB.all.mb58.gz 65.86MB Kongsberg multibeam vendor format
0183_20160201_103616_EX1601_MB.all.mb58.gz 66.43MB Kongsberg multibeam vendor format
0184_20160201_113615_EX1601_MB.all.mb58.gz 65.30MB Kongsberg multibeam vendor format
0185_20160201_123614_EX1601_MB.all.mb58.gz 65.44MB Kongsberg multibeam vendor format
0186_20160201_133620_EX1601_MB.all.mb58.gz 65.26MB Kongsberg multibeam vendor format
0187_20160201_143617_EX1601_MB.all.mb58.gz 65.35MB Kongsberg multibeam vendor format
0188_20160201_153616_EX1601_MB.all.mb58.gz 65.38MB Kongsberg multibeam vendor format
0189_20160201_163614_EX1601_MB.all.mb58.gz 65.58MB Kongsberg multibeam vendor format
0190_20160201_173619_EX1601_MB.all.mb58.gz 65.35MB Kongsberg multibeam vendor format
0191_20160201_183618_EX1601_MB.all.mb58.gz 65.54MB Kongsberg multibeam vendor format
0192_20160201_193614_EX1601_MB.all.mb58.gz 66.00MB Kongsberg multibeam vendor format
0193_20160201_203621_EX1601_MB.all.mb58.gz 65.95MB Kongsberg multibeam vendor format
0194_20160201_213620_EX1601_MB.all.mb58.gz 65.86MB Kongsberg multibeam vendor format
0195_20160201_223621_EX1601_MB.all.mb58.gz 65.69MB Kongsberg multibeam vendor format
0196_20160201_233614_EX1601_MB.all.mb58.gz 65.62MB Kongsberg multibeam vendor format
0197_20160202_003613_EX1601_MB.all.mb58.gz 65.61MB Kongsberg multibeam vendor format
0198_20160202_013618_EX1601_MB.all.mb58.gz 65.38MB Kongsberg multibeam vendor format
0199_20160202_023618_EX1601_MB.all.mb58.gz 28.51MB Kongsberg multibeam vendor format
0200_20160202_030232_EX1601_MB.all.mb58.gz 3.15MB Kongsberg multibeam vendor format
0201_20160202_030525_EX1601_MB.all.mb58.gz 3.71MB Kongsberg multibeam vendor format
0202_20160202_030850_EX1601_MB.all.mb58.gz 4.65MB Kongsberg multibeam vendor format
0203_20160202_031306_EX1601_MB.all.mb58.gz 3.69MB Kongsberg multibeam vendor format
0204_20160202_031630_EX1601_MB.all.mb58.gz 5.17MB Kongsberg multibeam vendor format
0205_20160202_032115_EX1601_MB.all.mb58.gz 65.29MB Kongsberg multibeam vendor format
0206_20160202_042123_EX1601_MB.all.mb58.gz 65.02MB Kongsberg multibeam vendor format
0207_20160202_052115_EX1601_MB.all.mb58.gz 65.33MB Kongsberg multibeam vendor format
0208_20160202_062121_EX1601_MB.all.mb58.gz 26.98MB Kongsberg multibeam vendor format
0209_20160202_064609_EX1601_MB.all.mb58.gz 12.07MB Kongsberg multibeam vendor format
0210_20160202_065714_EX1601_MB.all.mb58.gz 31.17MB Kongsberg multibeam vendor format
0211_20160202_072554_EX1601_MB.all.mb58.gz 30.32MB Kongsberg multibeam vendor format
0212_20160202_075348_EX1601_MB.all.mb58.gz 65.11MB Kongsberg multibeam vendor format
0213_20160202_085344_EX1601_MB.all.mb58.gz 65.36MB Kongsberg multibeam vendor format
0214_20160202_095336_EX1601_MB.all.mb58.gz 66.57MB Kongsberg multibeam vendor format
0215_20160202_105337_EX1601_MB.all.mb58.gz 66.33MB Kongsberg multibeam vendor format
0216_20160202_115340_EX1601_MB.all.mb58.gz 14.23MB Kongsberg multibeam vendor format
0217_20160202_120633_EX1601_MB.all.mb58.gz 4.34MB Kongsberg multibeam vendor format
0218_20160202_121029_EX1601_MB.all.mb58.gz 68.80MB Kongsberg multibeam vendor format
0219_20160202_131023_EX1601_MB.all.mb58.gz 14.54MB Kongsberg multibeam vendor format
0220_20160202_132109_EX1601_MB.all.mb58.gz 128.80MB Kongsberg multibeam vendor format
0221_20160202_142107_EX1601_MB.all.mb58.gz 72.24MB Kongsberg multibeam vendor format
0222_20160206_022554_EX1601_MB.all.mb58.gz 0.80MB Kongsberg multibeam vendor format
0223_20160206_025720_EX1601_MB.all.mb58.gz 30.04MB Kongsberg multibeam vendor format
0224_20160206_033312_EX1601_MB.all.mb58.gz 30.16MB Kongsberg multibeam vendor format
0225_20160206_041058_EX1601_MB.all.mb58.gz 35.52MB Kongsberg multibeam vendor format
0226_20160206_045037_EX1601_MB.all.mb58.gz 61.12MB Kongsberg multibeam vendor format
0227_20160206_055440_EX1601_MB.all.mb58.gz 3.25MB Kongsberg multibeam vendor format
0228_20160206_060547_EX1601_MB.all.mb58.gz 28.78MB Kongsberg multibeam vendor format
0229_20160206_064515_EX1601_MB.all.mb58.gz 27.90MB Kongsberg multibeam vendor format
0230_20160206_070948_EX1601_MB.all.mb58.gz 9.95MB Kongsberg multibeam vendor format
0231_20160206_072254_EX1601_MB.all.mb58.gz 45.30MB Kongsberg multibeam vendor format
0232_20160206_223650_EX1601_MB.all.mb58.gz 23.98MB Kongsberg multibeam vendor format
0233_20160206_230659_EX1601_MB.all.mb58.gz 24.99MB Kongsberg multibeam vendor format
0234_20160206_233908_EX1601_MB.all.mb58.gz 24.69MB Kongsberg multibeam vendor format

Full Resolution Bathymetry (processed): 230

Files File Size Description
0000_20160125_030733_EX1601_MB.gsf.mb121.gz 0.56MB SAIC Generic Sensor Format (GSF)
0001_20160125_040731_EX1601_MB.gsf.mb121.gz 5.82MB SAIC Generic Sensor Format (GSF)
0002_20160125_050731_EX1601_MB.gsf.mb121.gz 5.95MB SAIC Generic Sensor Format (GSF)
0003_20160125_060723_EX1601_MB.gsf.mb121.gz 6.05MB SAIC Generic Sensor Format (GSF)
0004_20160125_070726_EX1601_MB.gsf.mb121.gz 5.93MB SAIC Generic Sensor Format (GSF)
0005_20160125_080724_EX1601_MB.gsf.mb121.gz 6.02MB SAIC Generic Sensor Format (GSF)
0006_20160125_090729_EX1601_MB.gsf.mb121.gz 6.03MB SAIC Generic Sensor Format (GSF)
0007_20160125_100726_EX1601_MB.gsf.mb121.gz 6.06MB SAIC Generic Sensor Format (GSF)
0008_20160125_110727_EX1601_MB.gsf.mb121.gz 6.07MB SAIC Generic Sensor Format (GSF)
0009_20160125_120724_EX1601_MB.gsf.mb121.gz 6.08MB SAIC Generic Sensor Format (GSF)
0010_20160125_130729_EX1601_MB.gsf.mb121.gz 6.06MB SAIC Generic Sensor Format (GSF)
0011_20160125_140725_EX1601_MB.gsf.mb121.gz 6.00MB SAIC Generic Sensor Format (GSF)
0012_20160125_150723_EX1601_MB.gsf.mb121.gz 6.00MB SAIC Generic Sensor Format (GSF)
0013_20160125_160725_EX1601_MB.gsf.mb121.gz 5.91MB SAIC Generic Sensor Format (GSF)
0014_20160125_170724_EX1601_MB.gsf.mb121.gz 5.84MB SAIC Generic Sensor Format (GSF)
0015_20160125_180727_EX1601_MB.gsf.mb121.gz 5.84MB SAIC Generic Sensor Format (GSF)
0016_20160125_190729_EX1601_MB.gsf.mb121.gz 5.82MB SAIC Generic Sensor Format (GSF)
0017_20160125_200724_EX1601_MB.gsf.mb121.gz 2.81MB SAIC Generic Sensor Format (GSF)
0018_20160125_223840_EX1601_MB.gsf.mb121.gz 320.9KB SAIC Generic Sensor Format (GSF)
0019_20160125_231343_EX1601_MB.gsf.mb121.gz 1.55MB SAIC Generic Sensor Format (GSF)
0020_20160125_233056_EX1601_MB.gsf.mb121.gz 474.4KB SAIC Generic Sensor Format (GSF)
0021_20160126_002818_EX1601_MB.gsf.mb121.gz 72.6KB SAIC Generic Sensor Format (GSF)
0025_20160126_013604_EX1601_MB.gsf.mb121.gz 3.23MB SAIC Generic Sensor Format (GSF)
0028_20160126_025217_EX1601_MB.gsf.mb121.gz 1.05MB SAIC Generic Sensor Format (GSF)
0029_20160126_032025_EX1601_MB.gsf.mb121.gz 2.01MB SAIC Generic Sensor Format (GSF)
0030_20160126_034006_EX1601_MB.gsf.mb121.gz 6.09MB SAIC Generic Sensor Format (GSF)
0031_20160126_044007_EX1601_MB.gsf.mb121.gz 6.04MB SAIC Generic Sensor Format (GSF)
0032_20160126_054008_EX1601_MB.gsf.mb121.gz 5.78MB SAIC Generic Sensor Format (GSF)
0033_20160126_064006_EX1601_MB.gsf.mb121.gz 5.80MB SAIC Generic Sensor Format (GSF)
0034_20160126_074010_EX1601_MB.gsf.mb121.gz 6.01MB SAIC Generic Sensor Format (GSF)
0035_20160126_084008_EX1601_MB.gsf.mb121.gz 6.01MB SAIC Generic Sensor Format (GSF)
0036_20160126_094011_EX1601_MB.gsf.mb121.gz 5.88MB SAIC Generic Sensor Format (GSF)
0037_20160126_104008_EX1601_MB.gsf.mb121.gz 5.77MB SAIC Generic Sensor Format (GSF)
0038_20160126_114008_EX1601_MB.gsf.mb121.gz 5.79MB SAIC Generic Sensor Format (GSF)
0039_20160126_124004_EX1601_MB.gsf.mb121.gz 5.80MB SAIC Generic Sensor Format (GSF)
0040_20160126_134009_EX1601_MB.gsf.mb121.gz 5.79MB SAIC Generic Sensor Format (GSF)
0041_20160126_144005_EX1601_MB.gsf.mb121.gz 5.75MB SAIC Generic Sensor Format (GSF)
0042_20160126_154007_EX1601_MB.gsf.mb121.gz 5.61MB SAIC Generic Sensor Format (GSF)
0043_20160126_164004_EX1601_MB.gsf.mb121.gz 5.53MB SAIC Generic Sensor Format (GSF)
0044_20160126_174011_EX1601_MB.gsf.mb121.gz 5.67MB SAIC Generic Sensor Format (GSF)
0045_20160126_184010_EX1601_MB.gsf.mb121.gz 5.80MB SAIC Generic Sensor Format (GSF)
0046_20160126_194008_EX1601_MB.gsf.mb121.gz 5.79MB SAIC Generic Sensor Format (GSF)
0047_20160126_204005_EX1601_MB.gsf.mb121.gz 5.80MB SAIC Generic Sensor Format (GSF)
0048_20160126_214009_EX1601_MB.gsf.mb121.gz 5.77MB SAIC Generic Sensor Format (GSF)
0049_20160126_224004_EX1601_MB.gsf.mb121.gz 5.91MB SAIC Generic Sensor Format (GSF)
0050_20160126_234009_EX1601_MB.gsf.mb121.gz 5.94MB SAIC Generic Sensor Format (GSF)
0051_20160127_004007_EX1601_MB.gsf.mb121.gz 5.64MB SAIC Generic Sensor Format (GSF)
0052_20160127_014003_EX1601_MB.gsf.mb121.gz 5.63MB SAIC Generic Sensor Format (GSF)
0053_20160127_024005_EX1601_MB.gsf.mb121.gz 5.67MB SAIC Generic Sensor Format (GSF)
0054_20160127_034011_EX1601_MB.gsf.mb121.gz 5.60MB SAIC Generic Sensor Format (GSF)
0055_20160127_044010_EX1601_MB.gsf.mb121.gz 5.54MB SAIC Generic Sensor Format (GSF)
0056_20160127_054011_EX1601_MB.gsf.mb121.gz 5.53MB SAIC Generic Sensor Format (GSF)
0057_20160127_064008_EX1601_MB.gsf.mb121.gz 5.62MB SAIC Generic Sensor Format (GSF)
0058_20160127_074008_EX1601_MB.gsf.mb121.gz 5.68MB SAIC Generic Sensor Format (GSF)
0059_20160127_084003_EX1601_MB.gsf.mb121.gz 5.76MB SAIC Generic Sensor Format (GSF)
0060_20160127_094007_EX1601_MB.gsf.mb121.gz 5.64MB SAIC Generic Sensor Format (GSF)
0061_20160127_104003_EX1601_MB.gsf.mb121.gz 5.77MB SAIC Generic Sensor Format (GSF)
0062_20160127_114004_EX1601_MB.gsf.mb121.gz 5.76MB SAIC Generic Sensor Format (GSF)
0063_20160127_124013_EX1601_MB.gsf.mb121.gz 5.57MB SAIC Generic Sensor Format (GSF)
0064_20160127_134009_EX1601_MB.gsf.mb121.gz 5.56MB SAIC Generic Sensor Format (GSF)
0065_20160127_144006_EX1601_MB.gsf.mb121.gz 5.71MB SAIC Generic Sensor Format (GSF)
0066_20160127_154005_EX1601_MB.gsf.mb121.gz 5.70MB SAIC Generic Sensor Format (GSF)
0067_20160127_164012_EX1601_MB.gsf.mb121.gz 5.63MB SAIC Generic Sensor Format (GSF)
0068_20160127_174004_EX1601_MB.gsf.mb121.gz 5.92MB SAIC Generic Sensor Format (GSF)
0069_20160127_184009_EX1601_MB.gsf.mb121.gz 5.62MB SAIC Generic Sensor Format (GSF)
0070_20160127_194003_EX1601_MB.gsf.mb121.gz 5.62MB SAIC Generic Sensor Format (GSF)
0071_20160127_204004_EX1601_MB.gsf.mb121.gz 5.37MB SAIC Generic Sensor Format (GSF)
0072_20160127_214954_EX1601_MB.gsf.mb121.gz 5.59MB SAIC Generic Sensor Format (GSF)
0073_20160127_224953_EX1601_MB.gsf.mb121.gz 5.62MB SAIC Generic Sensor Format (GSF)
0074_20160127_234952_EX1601_MB.gsf.mb121.gz 5.68MB SAIC Generic Sensor Format (GSF)
0075_20160128_004950_EX1601_MB.gsf.mb121.gz 5.65MB SAIC Generic Sensor Format (GSF)
0076_20160128_014957_EX1601_MB.gsf.mb121.gz 5.68MB SAIC Generic Sensor Format (GSF)
0077_20160128_024957_EX1601_MB.gsf.mb121.gz 5.67MB SAIC Generic Sensor Format (GSF)
0078_20160128_034952_EX1601_MB.gsf.mb121.gz 5.78MB SAIC Generic Sensor Format (GSF)
0079_20160128_044957_EX1601_MB.gsf.mb121.gz 5.77MB SAIC Generic Sensor Format (GSF)
0080_20160128_054949_EX1601_MB.gsf.mb121.gz 3.75MB SAIC Generic Sensor Format (GSF)
0081_20160128_062901_EX1601_MB.gsf.mb121.gz 5.55MB SAIC Generic Sensor Format (GSF)
0082_20160128_072901_EX1601_MB.gsf.mb121.gz 5.66MB SAIC Generic Sensor Format (GSF)
0083_20160128_082900_EX1601_MB.gsf.mb121.gz 5.56MB SAIC Generic Sensor Format (GSF)
0084_20160128_092901_EX1601_MB.gsf.mb121.gz 5.56MB SAIC Generic Sensor Format (GSF)
0085_20160128_102859_EX1601_MB.gsf.mb121.gz 5.59MB SAIC Generic Sensor Format (GSF)
0086_20160128_112854_EX1601_MB.gsf.mb121.gz 5.60MB SAIC Generic Sensor Format (GSF)
0087_20160128_122854_EX1601_MB.gsf.mb121.gz 5.68MB SAIC Generic Sensor Format (GSF)
0088_20160128_132902_EX1601_MB.gsf.mb121.gz 5.68MB SAIC Generic Sensor Format (GSF)
0089_20160128_142858_EX1601_MB.gsf.mb121.gz 5.68MB SAIC Generic Sensor Format (GSF)
0090_20160128_152854_EX1601_MB.gsf.mb121.gz 5.63MB SAIC Generic Sensor Format (GSF)
0091_20160128_162854_EX1601_MB.gsf.mb121.gz 5.71MB SAIC Generic Sensor Format (GSF)
0092_20160128_172853_EX1601_MB.gsf.mb121.gz 5.71MB SAIC Generic Sensor Format (GSF)
0093_20160128_182856_EX1601_MB.gsf.mb121.gz 5.72MB SAIC Generic Sensor Format (GSF)
0094_20160128_192858_EX1601_MB.gsf.mb121.gz 5.74MB SAIC Generic Sensor Format (GSF)
0095_20160128_202853_EX1601_MB.gsf.mb121.gz 5.75MB SAIC Generic Sensor Format (GSF)
0096_20160128_212857_EX1601_MB.gsf.mb121.gz 5.63MB SAIC Generic Sensor Format (GSF)
0097_20160128_222853_EX1601_MB.gsf.mb121.gz 5.69MB SAIC Generic Sensor Format (GSF)
0098_20160128_232856_EX1601_MB.gsf.mb121.gz 5.62MB SAIC Generic Sensor Format (GSF)
0099_20160129_002900_EX1601_MB.gsf.mb121.gz 5.66MB SAIC Generic Sensor Format (GSF)
0100_20160129_012859_EX1601_MB.gsf.mb121.gz 5.73MB SAIC Generic Sensor Format (GSF)
0101_20160129_022854_EX1601_MB.gsf.mb121.gz 1.40MB SAIC Generic Sensor Format (GSF)
0102_20160129_024317_EX1601_MB.gsf.mb121.gz 3.10MB SAIC Generic Sensor Format (GSF)
0103_20160129_031531_EX1601_MB.gsf.mb121.gz 5.60MB SAIC Generic Sensor Format (GSF)
0104_20160129_041537_EX1601_MB.gsf.mb121.gz 5.63MB SAIC Generic Sensor Format (GSF)
0105_20160129_051530_EX1601_MB.gsf.mb121.gz 5.67MB SAIC Generic Sensor Format (GSF)
0106_20160129_061536_EX1601_MB.gsf.mb121.gz 5.67MB SAIC Generic Sensor Format (GSF)
0107_20160129_071530_EX1601_MB.gsf.mb121.gz 5.71MB SAIC Generic Sensor Format (GSF)
0108_20160129_081528_EX1601_MB.gsf.mb121.gz 5.63MB SAIC Generic Sensor Format (GSF)
0109_20160129_091536_EX1601_MB.gsf.mb121.gz 5.69MB SAIC Generic Sensor Format (GSF)
0110_20160129_101536_EX1601_MB.gsf.mb121.gz 5.66MB SAIC Generic Sensor Format (GSF)
0111_20160129_111530_EX1601_MB.gsf.mb121.gz 5.68MB SAIC Generic Sensor Format (GSF)
0112_20160129_121533_EX1601_MB.gsf.mb121.gz 5.70MB SAIC Generic Sensor Format (GSF)
0113_20160129_131535_EX1601_MB.gsf.mb121.gz 5.64MB SAIC Generic Sensor Format (GSF)
0114_20160129_141536_EX1601_MB.gsf.mb121.gz 5.68MB SAIC Generic Sensor Format (GSF)
0115_20160129_151530_EX1601_MB.gsf.mb121.gz 5.72MB SAIC Generic Sensor Format (GSF)
0116_20160129_161528_EX1601_MB.gsf.mb121.gz 5.74MB SAIC Generic Sensor Format (GSF)
0117_20160129_171534_EX1601_MB.gsf.mb121.gz 5.75MB SAIC Generic Sensor Format (GSF)
0118_20160129_181536_EX1601_MB.gsf.mb121.gz 5.66MB SAIC Generic Sensor Format (GSF)
0119_20160129_191533_EX1601_MB.gsf.mb121.gz 5.52MB SAIC Generic Sensor Format (GSF)
0120_20160129_201304_EX1601_MB.gsf.mb121.gz 5.74MB SAIC Generic Sensor Format (GSF)
0121_20160129_211306_EX1601_MB.gsf.mb121.gz 5.75MB SAIC Generic Sensor Format (GSF)
0122_20160129_221305_EX1601_MB.gsf.mb121.gz 5.73MB SAIC Generic Sensor Format (GSF)
0123_20160129_231300_EX1601_MB.gsf.mb121.gz 5.67MB SAIC Generic Sensor Format (GSF)
0124_20160130_001300_EX1601_MB.gsf.mb121.gz 5.74MB SAIC Generic Sensor Format (GSF)
0125_20160130_011306_EX1601_MB.gsf.mb121.gz 5.73MB SAIC Generic Sensor Format (GSF)
0126_20160130_021258_EX1601_MB.gsf.mb121.gz 3.83MB SAIC Generic Sensor Format (GSF)
0127_20160130_025234_EX1601_MB.gsf.mb121.gz 5.67MB SAIC Generic Sensor Format (GSF)
0128_20160130_035230_EX1601_MB.gsf.mb121.gz 5.73MB SAIC Generic Sensor Format (GSF)
0129_20160130_045229_EX1601_MB.gsf.mb121.gz 5.73MB SAIC Generic Sensor Format (GSF)
0130_20160130_055231_EX1601_MB.gsf.mb121.gz 5.73MB SAIC Generic Sensor Format (GSF)
0131_20160130_065233_EX1601_MB.gsf.mb121.gz 5.68MB SAIC Generic Sensor Format (GSF)
0132_20160130_075230_EX1601_MB.gsf.mb121.gz 5.67MB SAIC Generic Sensor Format (GSF)
0133_20160130_085237_EX1601_MB.gsf.mb121.gz 5.70MB SAIC Generic Sensor Format (GSF)
0134_20160130_095229_EX1601_MB.gsf.mb121.gz 5.74MB SAIC Generic Sensor Format (GSF)
0135_20160130_105234_EX1601_MB.gsf.mb121.gz 5.74MB SAIC Generic Sensor Format (GSF)
0136_20160130_115232_EX1601_MB.gsf.mb121.gz 5.74MB SAIC Generic Sensor Format (GSF)
0137_20160130_125235_EX1601_MB.gsf.mb121.gz 5.75MB SAIC Generic Sensor Format (GSF)
0138_20160130_135239_EX1601_MB.gsf.mb121.gz 5.68MB SAIC Generic Sensor Format (GSF)
0139_20160130_145235_EX1601_MB.gsf.mb121.gz 5.73MB SAIC Generic Sensor Format (GSF)
0140_20160130_155238_EX1601_MB.gsf.mb121.gz 5.73MB SAIC Generic Sensor Format (GSF)
0141_20160130_165237_EX1601_MB.gsf.mb121.gz 5.73MB SAIC Generic Sensor Format (GSF)
0142_20160130_175239_EX1601_MB.gsf.mb121.gz 5.77MB SAIC Generic Sensor Format (GSF)
0143_20160130_185235_EX1601_MB.gsf.mb121.gz 5.81MB SAIC Generic Sensor Format (GSF)
0144_20160130_195235_EX1601_MB.gsf.mb121.gz 5.81MB SAIC Generic Sensor Format (GSF)
0145_20160130_205234_EX1601_MB.gsf.mb121.gz 5.76MB SAIC Generic Sensor Format (GSF)
0146_20160130_215231_EX1601_MB.gsf.mb121.gz 5.82MB SAIC Generic Sensor Format (GSF)
0147_20160130_225238_EX1601_MB.gsf.mb121.gz 5.76MB SAIC Generic Sensor Format (GSF)
0148_20160130_235231_EX1601_MB.gsf.mb121.gz 5.62MB SAIC Generic Sensor Format (GSF)
0149_20160131_005230_EX1601_MB.gsf.mb121.gz 5.65MB SAIC Generic Sensor Format (GSF)
0150_20160131_015233_EX1601_MB.gsf.mb121.gz 5.48MB SAIC Generic Sensor Format (GSF)
0151_20160131_025235_EX1601_MB.gsf.mb121.gz 5.56MB SAIC Generic Sensor Format (GSF)
0152_20160131_035231_EX1601_MB.gsf.mb121.gz 5.63MB SAIC Generic Sensor Format (GSF)
0153_20160131_045237_EX1601_MB.gsf.mb121.gz 5.34MB SAIC Generic Sensor Format (GSF)
0154_20160131_054936_EX1601_MB.gsf.mb121.gz 5.64MB SAIC Generic Sensor Format (GSF)
0155_20160131_064934_EX1601_MB.gsf.mb121.gz 5.64MB SAIC Generic Sensor Format (GSF)
0156_20160131_074932_EX1601_MB.gsf.mb121.gz 5.63MB SAIC Generic Sensor Format (GSF)
0157_20160131_084934_EX1601_MB.gsf.mb121.gz 5.60MB SAIC Generic Sensor Format (GSF)
0158_20160131_094927_EX1601_MB.gsf.mb121.gz 5.58MB SAIC Generic Sensor Format (GSF)
0159_20160131_104930_EX1601_MB.gsf.mb121.gz 5.60MB SAIC Generic Sensor Format (GSF)
0160_20160131_114932_EX1601_MB.gsf.mb121.gz 5.59MB SAIC Generic Sensor Format (GSF)
0161_20160131_124934_EX1601_MB.gsf.mb121.gz 5.60MB SAIC Generic Sensor Format (GSF)
0162_20160131_134929_EX1601_MB.gsf.mb121.gz 5.66MB SAIC Generic Sensor Format (GSF)
0163_20160131_144932_EX1601_MB.gsf.mb121.gz 5.66MB SAIC Generic Sensor Format (GSF)
0164_20160131_154928_EX1601_MB.gsf.mb121.gz 5.65MB SAIC Generic Sensor Format (GSF)
0165_20160131_164930_EX1601_MB.gsf.mb121.gz 5.65MB SAIC Generic Sensor Format (GSF)
0166_20160131_174927_EX1601_MB.gsf.mb121.gz 5.70MB SAIC Generic Sensor Format (GSF)
0167_20160131_184936_EX1601_MB.gsf.mb121.gz 5.63MB SAIC Generic Sensor Format (GSF)
0168_20160131_194928_EX1601_MB.gsf.mb121.gz 5.66MB SAIC Generic Sensor Format (GSF)
0169_20160131_204936_EX1601_MB.gsf.mb121.gz 5.61MB SAIC Generic Sensor Format (GSF)
0170_20160131_214929_EX1601_MB.gsf.mb121.gz 5.71MB SAIC Generic Sensor Format (GSF)
0171_20160131_224932_EX1601_MB.gsf.mb121.gz 5.67MB SAIC Generic Sensor Format (GSF)
0172_20160131_234933_EX1601_MB.gsf.mb121.gz 5.66MB SAIC Generic Sensor Format (GSF)
0173_20160201_004931_EX1601_MB.gsf.mb121.gz 5.69MB SAIC Generic Sensor Format (GSF)
0174_20160201_014928_EX1601_MB.gsf.mb121.gz 5.68MB SAIC Generic Sensor Format (GSF)
0175_20160201_024929_EX1601_MB.gsf.mb121.gz 5.78MB SAIC Generic Sensor Format (GSF)
0176_20160201_034927_EX1601_MB.gsf.mb121.gz 5.72MB SAIC Generic Sensor Format (GSF)
0177_20160201_044928_EX1601_MB.gsf.mb121.gz 5.74MB SAIC Generic Sensor Format (GSF)
0178_20160201_054935_EX1601_MB.gsf.mb121.gz 5.76MB SAIC Generic Sensor Format (GSF)
0179_20160201_064932_EX1601_MB.gsf.mb121.gz 5.72MB SAIC Generic Sensor Format (GSF)
0180_20160201_074928_EX1601_MB.gsf.mb121.gz 4.47MB SAIC Generic Sensor Format (GSF)
0181_20160201_083615_EX1601_MB.gsf.mb121.gz 5.69MB SAIC Generic Sensor Format (GSF)
0182_20160201_093617_EX1601_MB.gsf.mb121.gz 5.81MB SAIC Generic Sensor Format (GSF)
0183_20160201_103616_EX1601_MB.gsf.mb121.gz 5.85MB SAIC Generic Sensor Format (GSF)
0184_20160201_113615_EX1601_MB.gsf.mb121.gz 5.68MB SAIC Generic Sensor Format (GSF)
0185_20160201_123614_EX1601_MB.gsf.mb121.gz 5.72MB SAIC Generic Sensor Format (GSF)
0186_20160201_133620_EX1601_MB.gsf.mb121.gz 5.63MB SAIC Generic Sensor Format (GSF)
0187_20160201_143617_EX1601_MB.gsf.mb121.gz 5.72MB SAIC Generic Sensor Format (GSF)
0188_20160201_153616_EX1601_MB.gsf.mb121.gz 5.75MB SAIC Generic Sensor Format (GSF)
0189_20160201_163614_EX1601_MB.gsf.mb121.gz 5.77MB SAIC Generic Sensor Format (GSF)
0190_20160201_173619_EX1601_MB.gsf.mb121.gz 5.68MB SAIC Generic Sensor Format (GSF)
0191_20160201_183618_EX1601_MB.gsf.mb121.gz 5.77MB SAIC Generic Sensor Format (GSF)
0192_20160201_193614_EX1601_MB.gsf.mb121.gz 5.85MB SAIC Generic Sensor Format (GSF)
0193_20160201_203621_EX1601_MB.gsf.mb121.gz 5.90MB SAIC Generic Sensor Format (GSF)
0194_20160201_213620_EX1601_MB.gsf.mb121.gz 5.87MB SAIC Generic Sensor Format (GSF)
0195_20160201_223621_EX1601_MB.gsf.mb121.gz 5.76MB SAIC Generic Sensor Format (GSF)
0196_20160201_233614_EX1601_MB.gsf.mb121.gz 5.73MB SAIC Generic Sensor Format (GSF)
0197_20160202_003613_EX1601_MB.gsf.mb121.gz 5.72MB SAIC Generic Sensor Format (GSF)
0198_20160202_013618_EX1601_MB.gsf.mb121.gz 5.74MB SAIC Generic Sensor Format (GSF)
0199_20160202_023618_EX1601_MB.gsf.mb121.gz 2.57MB SAIC Generic Sensor Format (GSF)
0200_20160202_030232_EX1601_MB.gsf.mb121.gz 399.6KB SAIC Generic Sensor Format (GSF)
0201_20160202_030525_EX1601_MB.gsf.mb121.gz 448.9KB SAIC Generic Sensor Format (GSF)
0202_20160202_030850_EX1601_MB.gsf.mb121.gz 0.52MB SAIC Generic Sensor Format (GSF)
0203_20160202_031306_EX1601_MB.gsf.mb121.gz 446.0KB SAIC Generic Sensor Format (GSF)
0204_20160202_031630_EX1601_MB.gsf.mb121.gz 0.51MB SAIC Generic Sensor Format (GSF)
0205_20160202_032115_EX1601_MB.gsf.mb121.gz 5.71MB SAIC Generic Sensor Format (GSF)
0206_20160202_042123_EX1601_MB.gsf.mb121.gz 5.70MB SAIC Generic Sensor Format (GSF)
0207_20160202_052115_EX1601_MB.gsf.mb121.gz 5.74MB SAIC Generic Sensor Format (GSF)
0208_20160202_062121_EX1601_MB.gsf.mb121.gz 2.44MB SAIC Generic Sensor Format (GSF)
0209_20160202_064609_EX1601_MB.gsf.mb121.gz 1.16MB SAIC Generic Sensor Format (GSF)
0210_20160202_065714_EX1601_MB.gsf.mb121.gz 2.80MB SAIC Generic Sensor Format (GSF)
0211_20160202_072554_EX1601_MB.gsf.mb121.gz 2.67MB SAIC Generic Sensor Format (GSF)
0212_20160202_075348_EX1601_MB.gsf.mb121.gz 5.72MB SAIC Generic Sensor Format (GSF)
0213_20160202_085344_EX1601_MB.gsf.mb121.gz 5.79MB SAIC Generic Sensor Format (GSF)
0214_20160202_095336_EX1601_MB.gsf.mb121.gz 5.92MB SAIC Generic Sensor Format (GSF)
0215_20160202_105337_EX1601_MB.gsf.mb121.gz 5.77MB SAIC Generic Sensor Format (GSF)
0216_20160202_115340_EX1601_MB.gsf.mb121.gz 1.36MB SAIC Generic Sensor Format (GSF)
0217_20160202_120633_EX1601_MB.gsf.mb121.gz 502.5KB SAIC Generic Sensor Format (GSF)
0218_20160202_121029_EX1601_MB.gsf.mb121.gz 6.41MB SAIC Generic Sensor Format (GSF)
0219_20160202_131023_EX1601_MB.gsf.mb121.gz 1.78MB SAIC Generic Sensor Format (GSF)
0220_20160202_132109_EX1601_MB.gsf.mb121.gz 14.39MB SAIC Generic Sensor Format (GSF)
0221_20160202_142107_EX1601_MB.gsf.mb121.gz 8.16MB SAIC Generic Sensor Format (GSF)
0222_20160206_022554_EX1601_MB.gsf.mb121.gz 99.0KB SAIC Generic Sensor Format (GSF)
0223_20160206_025720_EX1601_MB.gsf.mb121.gz 3.50MB SAIC Generic Sensor Format (GSF)
0224_20160206_033312_EX1601_MB.gsf.mb121.gz 3.51MB SAIC Generic Sensor Format (GSF)
0225_20160206_041058_EX1601_MB.gsf.mb121.gz 4.17MB SAIC Generic Sensor Format (GSF)
0226_20160206_045037_EX1601_MB.gsf.mb121.gz 7.10MB SAIC Generic Sensor Format (GSF)
0227_20160206_055440_EX1601_MB.gsf.mb121.gz 386.6KB SAIC Generic Sensor Format (GSF)
0228_20160206_060547_EX1601_MB.gsf.mb121.gz 3.35MB SAIC Generic Sensor Format (GSF)
0229_20160206_064515_EX1601_MB.gsf.mb121.gz 3.28MB SAIC Generic Sensor Format (GSF)
0230_20160206_070948_EX1601_MB.gsf.mb121.gz 1.17MB SAIC Generic Sensor Format (GSF)
0231_20160206_072254_EX1601_MB.gsf.mb121.gz 5.32MB SAIC Generic Sensor Format (GSF)
0232_20160206_223650_EX1601_MB_ADCP_Test.gsf.mb121.gz 2.30MB SAIC Generic Sensor Format (GSF)
0233_20160206_230659_EX1601_MB_ADCP_Test.gsf.mb121.gz 2.32MB SAIC Generic Sensor Format (GSF)
0234_20160206_233908_EX1601_MB_ADCP_Test.gsf.mb121.gz 2.29MB SAIC Generic Sensor Format (GSF)

Products: 10

Files File Size Description
EX1601_MB_FNL_Molokai_Fracture_Zone_WGS84_100m.asc.gz 151.13MB ESRI Arc ASCII
EX1601_MB_FNL_Molokai_Fracture_Zone_WGS84_100m.kmz.gz 36.3KB Compressed Keyhole Markup Language file
EX1601_MB_FNL_Molokai_Fracture_Zone_WGS84_100m.sd.gz 299.38MB Fledermaus surface
EX1601_MB_FNL_Molokai_Fracture_Zone_WGS84_100m.tif.gz 6.32MB GeoTIFF survey image
EX1601_MB_FNL_Molokai_Fracture_Zone_WGS84_100m.xyz.gz 44.50MB xyz grid file provided by the originator
EX1601_MB_FNL_Transit_WGS84_100m.asc.gz 240.61MB ESRI Arc ASCII
EX1601_MB_FNL_Transit_WGS84_100m.kmz.gz 108.5KB Compressed Keyhole Markup Language file
EX1601_MB_FNL_Transit_WGS84_100m.sd.gz 479.03MB Fledermaus surface
EX1601_MB_FNL_Transit_WGS84_100m.tif.gz 8.33MB GeoTIFF survey image
EX1601_MB_FNL_Transit_WGS84_100m.xyz.gz 33.81MB xyz grid file provided by the originator

Metadata Files: 8

Files File Size Description
EX1601_Multibeam.xml NGDC created ISO metadata
EX1601_COLLECTION_UNRESOLVED.xml 12.1KB XML metadata file
EX1601_Multibeam_COLLECTION_UNRESOLVED.xml 21.5KB XML metadata file
EX1601_Profile_COLLECTION_UNRESOLVED.xml 15.5KB XML metadata file
mb_bag_info.tar.gz 26.2KB Additional cruise information
v1_file_metadata.tar.gz 75.2KB File level metadata
wcp_bag_info.tar.gz 5.1KB Additional cruise information
v2_file_metadata.tar.gz 81.7KB File level metadata

Ancillary Files: 4

Files File Size Description
asvp.tar.gz 185.4KB Sound Speed Profiles (SSP or SVP)
ctd.tar.gz 2.12MB Conductivity, Temperature, Depth (CTD) data
support.tar.gz 122.0KB Supporting data
xbt.tar.gz 0.80MB Expendable Bathythermograph (XBT) data

Water Column Sonar Data

Water Column Sonar Data Available: WCSD Map Viewer